Location: Beekmeers
(50.8953°N, 3.6968°E)
Time: 04:11:57
(UTC+00:00)

Cosmos 2151 Rocket - Pass Details

Date: 23 May 2024
Orbit: 614 x 639 km, 82.5° (Epoch: 21 June)

Event Time Altitude Azimuth Distance (km) Brightness Sun altitude
Rises 02:33:28 0° 349° (N) 2,947 7.7 -9.1°
Reaches altitude 10° 02:35:43 10° 350° (N) 2,030 6.8 -8.9°
Maximum altitude 02:40:14 88° 78° (ENE) 638 3.6 -8.4°
Drops below altitude 10° 02:44:41 10° 171° (S) 1,997 5.8 -8.0°
Sets 02:46:53 0° 171° (S) 2,895 6.6 -7.7°
